Location: Wanzleben
(52.0609°N, 11.4408°E)
Time: 06:51:30
(UTC+00:00)

Cosmos 372 Rocket - Pass Details

Date: 18 September 2020
Orbit: 739 x 767 km, 74.1° (Epoch: 22 October)

Event Time Altitude Azimuth Distance (km) Brightness Sun altitude
Rises 18:44:35 0° 191° (S) 3,224 7.1 -13.4°
Reaches altitude 10° 18:46:59 10° 187° (S) 2,301 6.3 -13.7°
Maximum altitude 18:52:06 59° 109° (ESE) 882 4.0 -14.4°
Drops below altitude 10° 18:57:14 10° 31° (NNE) 2,306 6.4 -15.2°
Sets 18:59:38 0° 28° (NNE) 3,232 7.2 -15.5°
